,,,PA_Meas_PMT16A,,PR_Meas_QMR101_102,,RH_Meas_QMH101,,SR_Meas_QMS101,,TA_Meas_QMH101,,GenWind,,GenWind,
date,time,status,PA,status,PR,status,RH,status,SR,status,TA,status,DirAvg,status,SpdAvg,
2010-05-24, 00:00:05,VALID,1009,VALID,0,VALID,102.49,VALID,0,VALID,24.6879,VALID,133,VALID,0.856641,
2010-05-24, 00:01:05,VALID,1009.01,VALID,0,VALID,102.482,VALID,0,VALID,24.6879,VALID,124,VALID,0.617969,
2010-05-24, 00:02:05,VALID,1008.98,VALID,0,VALID,102.46,VALID,0,VALID,24.6666,VALID,155,VALID,0.95,
2010-05-24, 00:03:05,VALID,1009.02,VALID,0,VALID,102.452,VALID,0,VALID,24.6684,VALID,150,VALID,0.724219,
2010-05-24, 00:04:05,VALID,1008.97,VALID,0,VALID,102.46,VALID,0,VALID,24.6879,VALID,159,VALID,0.471484,
2010-05-24, 00:05:05,VALID,1008.97,VALID,0,VALID,102.467,VALID,0,VALID,24.6489,VALID,135,VALID,0.810156,
2010-05-24, 00:06:05,VALID,1008.95,VALID,0,VALID,102.452,VALID,0,VALID,24.6489,VALID,136,VALID,0.615625,
2010-05-24, 00:07:05,VALID,1008.97,VALID,0,VALID,102.467,VALID,0,VALID,24.6489,VALID,147,VALID,0.339844,
2010-05-24, 00:08:05,VALID,1008.93,VALID,0,VALID,102.482,VALID,0,VALID,24.6081,VALID,109,VALID,0.662891,
2010-05-24, 00:09:05,VALID,1008.91,VALID,0,VALID,102.46,VALID,0,VALID,24.6294,VALID,122,VALID,0.504297,
2010-05-24, 00:10:05,VALID,1008.91,VALID,0,VALID,102.49,VALID,0,VALID,24.6099,VALID,143,VALID,0.560938,
2010-05-24, 00:11:05,VALID,1008.89,VALID,0,VALID,102.505,VALID,0,VALID,24.6099,VALID,121,VALID,0.730078,
2010-05-24, 00:12:05,VALID,1008.9,VALID,0,VALID,102.498,VALID,0,VALID,24.5691,VALID,121,VALID,1.07383,
2010-05-24, 00:13:05,VALID,1008.9,VALID,0,VALID,102.498,VALID,0,VALID,24.5905,VALID,128,VALID,1.00703,
2010-05-24, 00:14:05,VALID,1008.91,VALID,0,VALID,102.513,VALID,0,VALID,24.5905,VALID,124,VALID,1.5125,
2010-05-24, 00:15:05,VALID,1008.92,VALID,0,VALID,102.505,VALID,0,VALID,24.5905,VALID,128,VALID,1.02344,
2010-05-24, 00:16:05,VALID,1008.91,VALID,0,VALID,102.528,VALID,0,VALID,24.571,VALID,139,VALID,1.30352,
2010-05-24, 00:17:05,VALID,1008.92,VALID,0,VALID,102.528,VALID,0,VALID,24.571,VALID,136,VALID,1.16953,
2010-05-24, 00:18:05,VALID,1008.89,VALID,0,VALID,102.528,VALID,0,VALID,24.5515,VALID,137,VALID,0.851172,
2010-05-24, 00:19:05,VALID,1008.91,VALID,0,VALID,102.536,VALID,0,VALID,24.5515,VALID,153,VALID,0.722656,
2010-05-24, 00:20:05,VALID,1008.91,VALID,0,VALID,102.521,VALID,0,VALID,24.5515,VALID,159,VALID,0.772266,
2010-05-24, 00:21:05,VALID,1008.89,VALID,0,VALID,102.513,VALID,0,VALID,24.5515,VALID,160,VALID,0.333594,
2010-05-24, 00:22:05,VALID,1008.89,VALID,0,VALID,102.521,VALID,0,VALID,24.5515,VALID,163,VALID,0.20625,
2010-05-24, 00:23:05,VALID,1008.87,VALID,0,VALID,102.551,VALID,0.105969,VALID,24.532,VALID,163,VALID,0.338281,
2010-05-24, 00:24:05,VALID,1008.88,VALID,0,VALID,102.544,VALID,0,VALID,24.532,VALID,163,VALID,0.289453,
2010-05-24, 00:25:05,VALID,1008.86,VALID,0,VALID,102.551,VALID,0,VALID,24.532,VALID,162,VALID,0.431641,
2010-05-24, 00:26:05,VALID,1008.83,VALID,0,VALID,102.559,VALID,0,VALID,24.5125,VALID,197,VALID,0.213672,
2010-05-24, 00:27:05,VALID,1008.87,VALID,0,VALID,102.566,VALID,0,VALID,24.532,VALID,197,VALID,0.353125,
2010-05-24, 00:28:05,VALID,1008.88,VALID,0,VALID,102.536,VALID,0,VALID,24.532,VALID,188,VALID,0.916016,
2010-05-24, 00:29:05,VALID,1008.87,VALID,0,VALID,102.544,VALID,0,VALID,24.532,VALID,175,VALID,0.672656,
2010-05-24, 00:30:05,VALID,1008.88,VALID,0,VALID,102.544,VALID,0,VALID,24.532,VALID,201,VALID,0.576953,
2010-05-24, 00:31:05,VALID,1008.87,VALID,0,VALID,102.566,VALID,0,VALID,24.532,VALID,166,VALID,0.898828,
2010-05-24, 00:32:05,VALID,1008.82,VALID,0,VALID,102.559,VALID,0,VALID,24.532,VALID,161,VALID,0.686719,
2010-05-24, 00:33:05,VALID,1008.82,VALID,0,VALID,102.559,VALID,0,VALID,24.532,VALID,160,VALID,0.794141,
2010-05-24, 00:34:05,VALID,1008.8,VALID,0,VALID,102.559,VALID,0,VALID,24.532,VALID,184,VALID,0.770703,
2010-05-24, 00:35:05,VALID,1008.82,VALID,0,VALID,102.551,VALID,0,VALID,24.5125,VALID,168,VALID,0.9875,
2010-05-24, 00:36:05,VALID,1008.8,VALID,0,VALID,102.544,VALID,0,VALID,24.5106,VALID,174,VALID,0.739844,
2010-05-24, 00:37:05,VALID,1008.83,VALID,0,VALID,102.551,VALID,0.105969,VALID,24.5106,VALID,159,VALID,1.21563,
2010-05-24, 00:38:05,VALID,1008.8,VALID,0,VALID,102.521,VALID,0,VALID,24.532,VALID,167,VALID,0.874609,
2010-05-24, 00:39:05,VALID,1008.78,VALID,0,VALID,102.513,VALID,0.105969,VALID,24.532,VALID,182,VALID,0.8875,
2010-05-24, 00:40:05,VALID,1008.78,VALID,0,VALID,102.505,VALID,0,VALID,24.532,VALID,168,VALID,0.627344,
2010-05-24, 00:41:05,VALID,1008.75,VALID,0,VALID,102.513,VALID,0,VALID,24.532,VALID,165,VALID,1.11367,
2010-05-24, 00:42:05,VALID,1008.74,VALID,0,VALID,102.505,VALID,0.105969,VALID,24.532,VALID,176,VALID,0.819531,
2010-05-24, 00:43:05,VALID,1008.76,VALID,0,VALID,102.482,VALID,0,VALID,24.4911,VALID,177,VALID,1.03437,
2010-05-24, 00:44:05,VALID,1008.74,VALID,0,VALID,102.475,VALID,0,VALID,24.532,VALID,180,VALID,0.377344,
2010-05-24, 00:45:05,VALID,1008.74,VALID,0,VALID,102.49,VALID,0,VALID,24.532,VALID,149,VALID,0.400781,
2010-05-24, 00:46:05,VALID,1008.71,VALID,0,VALID,102.505,VALID,0,VALID,24.532,VALID,149,VALID,0.0789063,
2010-05-24, 00:47:05,VALID,1008.75,VALID,0,VALID,102.49,VALID,0,VALID,24.532,VALID,149,VALID,0.312109,
2010-05-24, 00:48:05,VALID,1008.76,VALID,0,VALID,102.498,VALID,0.105969,VALID,24.4911,VALID,171,VALID,0.752344,
2010-05-24, 00:49:05,VALID,1008.74,VALID,0,VALID,102.498,VALID,0,VALID,24.5125,VALID,182,VALID,0.524219,
2010-05-24, 00:50:05,VALID,1008.79,VALID,0,VALID,102.49,VALID,0,VALID,24.493,VALID,167,VALID,0.495703,
2010-05-24, 00:51:05,VALID,1008.78,VALID,0,VALID,102.505,VALID,0,VALID,24.5125,VALID,168,VALID,0.702734,
2010-05-24, 00:52:05,VALID,1008.77,VALID,0,VALID,102.475,VALID,0,VALID,24.493,VALID,152,VALID,1.08047,
2010-05-24, 00:53:05,VALID,1008.78,VALID,0,VALID,102.467,VALID,0,VALID,24.5125,VALID,166,VALID,0.821094,
2010-05-24, 00:54:05,VALID,1008.79,VALID,0,VALID,102.482,VALID,0.105969,VALID,24.4717,VALID,156,VALID,0.842578,
2010-05-24, 00:55:05,VALID,1008.74,VALID,0,VALID,102.482,VALID,0,VALID,24.493,VALID,156,VALID,0.640625,
2010-05-24, 00:56:05,VALID,1008.75,VALID,0,VALID,102.49,VALID,0.105969,VALID,24.4717,VALID,160,VALID,0.663281,
2010-05-24, 00:57:05,VALID,1008.72,VALID,0,VALID,102.475,VALID,0,VALID,24.4717,VALID,155,VALID,0.312109,
2010-05-24, 00:58:05,VALID,1008.68,VALID,0,VALID,102.467,VALID,0,VALID,24.4735,VALID,155,VALID,0.174609,
2010-05-24, 00:59:05,VALID,1008.69,VALID,0,VALID,102.482,VALID,0,VALID,24.4717,VALID,129,VALID,0.680859,
2010-05-24, 01:00:05,VALID,1008.66,VALID,0,VALID,102.49,VALID,0.105969,VALID,24.4717,VALID,146,VALID,0.530469,
2010-05-24, 01:01:05,VALID,1008.68,VALID,0,VALID,102.513,VALID,0.105969,VALID,24.493,VALID,133,VALID,0.322266,
2010-05-24, 01:02:05,VALID,1008.67,VALID,0,VALID,102.505,VALID,0,VALID,24.4949,VALID,133,VALID,0.457031,
2010-05-24, 01:03:05,VALID,1008.66,VALID,0,VALID,102.513,VALID,0,VALID,24.454,VALID,133,VALID,0.187109,
2010-05-24, 01:04:05,VALID,1008.64,VALID,0,VALID,102.544,VALID,0,VALID,24.454,VALID,110,VALID,0.760547,
2010-05-24, 01:05:05,VALID,1008.63,VALID,0,VALID,102.544,VALID,0,VALID,24.4559,VALID,112,VALID,0.69375,
2010-05-24, 01:06:05,VALID,1008.63,VALID,0,VALID,102.513,VALID,0,VALID,24.454,VALID,114,VALID,0.448828,
2010-05-24, 01:07:05,VALID,1008.61,VALID,0,VALID,102.536,VALID,0,VALID,24.415,VALID,116,VALID,1.19336,
2010-05-24, 01:08:05,VALID,1008.59,VALID,0,VALID,102.513,VALID,0,VALID,24.4345,VALID,112,VALID,0.608984,
2010-05-24, 01:09:05,VALID,1008.62,VALID,0,VALID,102.521,VALID,0,VALID,24.4559,VALID,112,VALID,0.667188,
2010-05-24, 01:10:05,VALID,1008.58,VALID,0,VALID,102.521,VALID,0,VALID,24.4364,VALID,112,VALID,0.479688,
2010-05-24, 01:11:05,VALID,1008.58,VALID,0,VALID,102.498,VALID,0,VALID,24.4559,VALID,115,VALID,0.270312,
2010-05-24, 01:12:05,VALID,1008.56,VALID,0,VALID,102.505,VALID,0,VALID,24.4364,VALID,91,VALID,0.707422,
2010-05-24, 01:13:05,VALID,1008.55,VALID,0,VALID,102.49,VALID,0,VALID,24.3956,VALID,83,VALID,0.598828,
2010-05-24, 01:14:05,VALID,1008.57,VALID,0,VALID,102.49,VALID,0,VALID,24.4364,VALID,81,VALID,0.869141,
2010-05-24, 01:15:05,VALID,1008.56,VALID,0,VALID,102.49,VALID,0,VALID,24.4169,VALID,81,VALID,0.740234,
2010-05-24, 01:16:05,VALID,1008.52,VALID,0,VALID,102.49,VALID,0,VALID,24.3956,VALID,81,VALID,0.582031,
2010-05-24, 01:17:05,VALID,1008.57,VALID,0,VALID,102.49,VALID,0,VALID,24.415,VALID,74,VALID,0.198828,
2010-05-24, 01:18:05,VALID,1008.55,VALID,0,VALID,102.505,VALID,0,VALID,24.3937,VALID,74,VALID,0.644531,
2010-05-24, 01:19:05,VALID,1008.55,VALID,0,VALID,102.498,VALID,0,VALID,24.3956,VALID,58,VALID,0.555469,
2010-05-24, 01:20:05,VALID,1008.58,VALID,0,VALID,102.513,VALID,0.105969,VALID,24.3761,VALID,48,VALID,0.78125,
2010-05-24, 01:21:05,VALID,1008.58,VALID,0,VALID,102.521,VALID,0,VALID,24.3566,VALID,52,VALID,0.360938,
2010-05-24, 01:22:05,VALID,1008.59,VALID,0,VALID,102.528,VALID,0.105969,VALID,24.3352,VALID,33,VALID,0.290234,
2010-05-24, 01:23:05,VALID,1008.6,VALID,0,VALID,102.528,VALID,0.105969,VALID,24.3371,VALID,33,VALID,0.399219,
2010-05-24, 01:24:05,VALID,1008.59,VALID,0,VALID,102.536,VALID,0,VALID,24.3371,VALID,33,VALID,0.227344,
2010-05-24, 01:25:05,VALID,1008.6,VALID,0,VALID,102.544,VALID,0,VALID,24.3371,VALID,33,VALID,0,
2010-05-24, 01:26:05,VALID,1008.61,VALID,0,VALID,102.559,VALID,0,VALID,24.3176,VALID,33,VALID,0,
2010-05-24, 01:27:05,VALID,1008.61,VALID,0,VALID,102.551,VALID,0,VALID,24.3176,VALID,33,VALID,0.317969,
2010-05-24, 01:28:05,VALID,1008.61,VALID,0,VALID,102.566,VALID,0,VALID,24.3176,VALID,33,VALID,0.294531,
2010-05-24, 01:29:05,VALID,1008.58,VALID,0,VALID,102.582,VALID,0.105969,VALID,24.2768,VALID,63,VALID,0.389062,
2010-05-24, 01:30:05,VALID,1008.61,VALID,0,VALID,102.574,VALID,0.105969,VALID,24.2768,VALID,63,VALID,0.059375,
2010-05-24, 01:31:05,VALID,1008.61,VALID,0,VALID,102.566,VALID,0,VALID,24.2786,VALID,63,VALID,0,
2010-05-24, 01:32:05,VALID,1008.61,VALID,0,VALID,102.574,VALID,0,VALID,24.2786,VALID,63,VALID,0.00898437,
2010-05-24, 01:33:05,VALID,1008.62,VALID,0,VALID,102.574,VALID,0,VALID,24.2573,VALID,63,VALID,0.0621094,
2010-05-24, 01:34:05,VALID,1008.66,VALID,0,VALID,102.582,VALID,0.105969,VALID,24.2591,VALID,63,VALID,0,
2010-05-24, 01:35:05,VALID,1008.63,VALID,0,VALID,102.597,VALID,0,VALID,24.2591,VALID,63,VALID,0,
2010-05-24, 01:36:05,VALID,1008.66,VALID,0,VALID,102.574,VALID,0,VALID,24.2591,VALID,61,VALID,0.302734,
2010-05-24, 01:37:05,VALID,1008.63,VALID,0,VALID,102.574,VALID,0,VALID,24.2378,VALID,60,VALID,0.385156,
2010-05-24, 01:38:05,VALID,1008.65,VALID,0,VALID,102.589,VALID,0,VALID,24.2591,VALID,62,VALID,0.539453,
2010-05-24, 01:39:05,VALID,1008.62,VALID,0,VALID,102.566,VALID,0.105969,VALID,24.2378,VALID,54,VALID,0,
2010-05-24, 01:40:05,VALID,1008.63,VALID,0,VALID,102.574,VALID,0,VALID,24.2378,VALID,72,VALID,0.221484,
2010-05-24, 01:41:05,VALID,1008.63,VALID,0,VALID,102.574,VALID,0,VALID,24.2396,VALID,76,VALID,0.701172,
2010-05-24, 01:42:05,VALID,1008.59,VALID,0,VALID,102.574,VALID,0,VALID,24.2396,VALID,81,VALID,0.960156,
2010-05-24, 01:43:05,VALID,1008.58,VALID,0,VALID,102.551,VALID,0,VALID,24.2396,VALID,92,VALID,0.537109,
2010-05-24, 01:44:05,VALID,1008.55,VALID,0,VALID,102.574,VALID,0,VALID,24.2396,VALID,63,VALID,0.883203,
2010-05-24, 01:45:05,VALID,1008.52,VALID,0,VALID,102.574,VALID,0,VALID,24.2183,VALID,60,VALID,0.770703,
2010-05-24, 01:46:05,VALID,1008.49,VALID,0,VALID,102.574,VALID,0,VALID,24.2183,VALID,76,VALID,0.837109,
2010-05-24, 01:47:05,VALID,1008.53,VALID,0,VALID,102.551,VALID,0.105969,VALID,24.2183,VALID,72,VALID,0.268359,
2010-05-24, 01:48:05,VALID,1008.45,VALID,0,VALID,102.566,VALID,0.105969,VALID,24.2202,VALID,90,VALID,0.711328,
2010-05-24, 01:49:05,VALID,1008.47,VALID,0,VALID,102.559,VALID,0.105969,VALID,24.2183,VALID,68,VALID,0.656641,
2010-05-24, 01:50:05,VALID,1008.47,VALID,0,VALID,102.566,VALID,0,VALID,24.2202,VALID,74,VALID,0.215234,
2010-05-24, 01:51:05,VALID,1008.45,VALID,0,VALID,102.536,VALID,0,VALID,24.2202,VALID,101,VALID,0.382422,
2010-05-24, 01:52:05,VALID,1008.42,VALID,0,VALID,102.536,VALID,0,VALID,24.2007,VALID,342,VALID,0.840625,
2010-05-24, 01:53:05,VALID,1008.41,VALID,0,VALID,102.544,VALID,0,VALID,24.2202,VALID,84,VALID,0.0972656,
2010-05-24, 01:54:05,VALID,1008.42,VALID,0,VALID,102.528,VALID,0,VALID,24.2202,VALID,92,VALID,0.369141,
2010-05-24, 01:55:05,VALID,1008.41,VALID,0,VALID,102.521,VALID,0,VALID,24.2007,VALID,68,VALID,0.792188,
2010-05-24, 01:56:05,VALID,1008.38,VALID,0,VALID,102.521,VALID,0,VALID,24.2202,VALID,45,VALID,0.601563,
2010-05-24, 01:57:05,VALID,1008.37,VALID,0,VALID,102.49,VALID,0,VALID,24.2396,VALID,102,VALID,0.570703,
2010-05-24, 01:58:05,VALID,1008.36,VALID,0,VALID,102.513,VALID,0,VALID,24.2202,VALID,65,VALID,0.716797,
2010-05-24, 01:59:05,VALID,1008.33,VALID,0,VALID,102.498,VALID,0,VALID,24.2183,VALID,73,VALID,0.795313,
2010-05-24, 02:00:05,VALID,1008.33,VALID,0,VALID,102.49,VALID,0,VALID,24.2396,VALID,33,VALID,0.521875,
2010-05-24, 02:01:05,VALID,1008.32,VALID,0,VALID,102.513,VALID,0,VALID,24.2396,VALID,33,VALID,0.752734,
2010-05-24, 02:02:05,VALID,1008.27,VALID,0,VALID,102.482,VALID,0.105969,VALID,24.2591,VALID,62,VALID,0.621484,
2010-05-24, 02:03:05,VALID,1008.26,VALID,0,VALID,102.475,VALID,0,VALID,24.2591,VALID,62,VALID,0.637891,
2010-05-24, 02:04:05,VALID,1008.23,VALID,0,VALID,102.482,VALID,0,VALID,24.2786,VALID,35,VALID,0.503125,
2010-05-24, 02:05:05,VALID,1008.21,VALID,0,VALID,102.482,VALID,0,VALID,24.2591,VALID,80,VALID,0.849219,
2010-05-24, 02:06:05,VALID,1008.22,VALID,0,VALID,102.49,VALID,0,VALID,24.2786,VALID,91,VALID,0.653906,
2010-05-24, 02:07:05,VALID,1008.22,VALID,0,VALID,102.46,VALID,0,VALID,24.2981,VALID,99,VALID,0.541016,
2010-05-24, 02:08:05,VALID,1008.2,VALID,0,VALID,102.467,VALID,0,VALID,24.2981,VALID,100,VALID,0.822266,
2010-05-24, 02:09:05,VALID,1008.24,VALID,0,VALID,102.452,VALID,0,VALID,24.2981,VALID,79,VALID,0.792188,
2010-05-24, 02:10:05,VALID,1008.24,VALID,0,VALID,102.467,VALID,0,VALID,24.2768,VALID,73,VALID,0.815625,
2010-05-24, 02:11:05,VALID,1008.23,VALID,0,VALID,102.482,VALID,0,VALID,24.2768,VALID,74,VALID,0.504297,
2010-05-24, 02:12:04,VALID,1008.24,VALID,0,VALID,102.482,VALID,0,VALID,24.2981,VALID,73,VALID,0.150781,
2010-05-24, 02:13:04,VALID,1008.22,VALID,0,VALID,102.437,VALID,0,VALID,24.2981,VALID,108,VALID,0.921094,
2010-05-24, 02:14:04,VALID,1008.24,VALID,0,VALID,102.467,VALID,0,VALID,24.2981,VALID,99,VALID,0.753906,
2010-05-24, 02:15:04,VALID,1008.23,VALID,0,VALID,102.452,VALID,0,VALID,24.3176,VALID,99,VALID,0.377344,
2010-05-24, 02:16:04,VALID,1008.23,VALID,0,VALID,102.452,VALID,0,VALID,24.3176,VALID,89,VALID,0.505078,
2010-05-24, 02:17:04,VALID,1008.23,VALID,0,VALID,102.452,VALID,0.105969,VALID,24.2963,VALID,53,VALID,0.756641,
2010-05-24, 02:18:04,VALID,1008.24,VALID,0,VALID,102.437,VALID,0,VALID,24.3176,VALID,82,VALID,0.619531,
2010-05-24, 02:19:04,VALID,1008.25,VALID,0,VALID,102.437,VALID,0.105969,VALID,24.3176,VALID,94,VALID,0.653125,
2010-05-24, 02:20:04,VALID,1008.24,VALID,0,VALID,102.444,VALID,0,VALID,24.2963,VALID,90,VALID,0.798437,
2010-05-24, 02:21:04,VALID,1008.25,VALID,0,VALID,102.429,VALID,0.105969,VALID,24.2963,VALID,83,VALID,0.508984,
2010-05-24, 02:22:04,VALID,1008.25,VALID,0,VALID,102.429,VALID,0.105969,VALID,24.3371,VALID,83,VALID,0.682031,
2010-05-24, 02:23:04,VALID,1008.24,VALID,0,VALID,102.414,VALID,0.105969,VALID,24.3158,VALID,83,VALID,0.05,
2010-05-24, 02:24:04,VALID,1008.21,VALID,0,VALID,102.406,VALID,0,VALID,24.3176,VALID,93,VALID,0.522266,
2010-05-24, 02:25:04,VALID,1008.2,VALID,0,VALID,102.421,VALID,0.105969,VALID,24.3176,VALID,91,VALID,0.415625,
2010-05-24, 02:26:04,VALID,1008.22,VALID,0,VALID,102.429,VALID,0,VALID,24.3176,VALID,91,VALID,0.130859,
2010-05-24, 02:27:04,VALID,1008.22,VALID,0,VALID,102.406,VALID,0,VALID,24.3158,VALID,59,VALID,0.0492188,
2010-05-24, 02:28:04,VALID,1008.22,VALID,0,VALID,102.391,VALID,0,VALID,24.3176,VALID,92,VALID,0.723437,
2010-05-24, 02:29:04,VALID,1008.24,VALID,0,VALID,102.391,VALID,0,VALID,24.3176,VALID,107,VALID,0.347266,
2010-05-24, 02:30:04,VALID,1008.24,VALID,0,VALID,102.406,VALID,0,VALID,24.3176,VALID,114,VALID,0.663281,
2010-05-24, 02:31:04,VALID,1008.27,VALID,0,VALID,102.391,VALID,0,VALID,24.3176,VALID,84,VALID,0.576172,
2010-05-24, 02:32:04,VALID,1008.24,VALID,0,VALID,102.399,VALID,0,VALID,24.3371,VALID,84,VALID,0.316797,
2010-05-24, 02:33:04,VALID,1008.28,VALID,0,VALID,102.414,VALID,0,VALID,24.3158,VALID,73,VALID,0.370703,
2010-05-24, 02:34:04,VALID,1008.28,VALID,0,VALID,102.406,VALID,0,VALID,24.3352,VALID,73,VALID,0.160156,
2010-05-24, 02:35:04,VALID,1008.27,VALID,0,VALID,102.383,VALID,0,VALID,24.3566,VALID,73,VALID,0.46875,
2010-05-24, 02:36:04,VALID,1008.28,VALID,0,VALID,102.406,VALID,0,VALID,24.3566,VALID,91,VALID,0.458984,
2010-05-24, 02:37:04,VALID,1008.28,VALID,0,VALID,102.399,VALID,0,VALID,24.3566,VALID,106,VALID,0.465625,
2010-05-24, 02:38:04,VALID,1008.28,VALID,0,VALID,102.421,VALID,0.105969,VALID,24.3566,VALID,102,VALID,0.672266,
2010-05-24, 02:39:04,VALID,1008.24,VALID,0,VALID,102.399,VALID,0.105969,VALID,24.3547,VALID,103,VALID,0.282031,
2010-05-24, 02:40:04,VALID,1008.23,VALID,0,VALID,102.406,VALID,0.105969,VALID,24.3761,VALID,103,VALID,0,
2010-05-24, 02:41:04,VALID,1008.23,VALID,0,VALID,102.399,VALID,0.105969,VALID,24.3547,VALID,103,VALID,0.0566406,
2010-05-24, 02:42:04,VALID,1008.22,VALID,0,VALID,102.391,VALID,0.105969,VALID,24.3547,VALID,103,VALID,0.275,
2010-05-24, 02:43:04,VALID,1008.21,VALID,0,VALID,102.406,VALID,0,VALID,24.3956,VALID,103,VALID,0,
2010-05-24, 02:44:04,VALID,1008.21,VALID,0,VALID,102.414,VALID,0,VALID,24.3761,VALID,103,VALID,0,
2010-05-24, 02:45:04,VALID,1008.19,VALID,0,VALID,102.421,VALID,0.105969,VALID,24.3547,VALID,103,VALID,0,
2010-05-24, 02:46:04,VALID,1008.21,VALID,0,VALID,102.437,VALID,0.105969,VALID,24.3547,VALID,103,VALID,0,
2010-05-24, 02:47:04,VALID,1008.2,VALID,0,VALID,102.421,VALID,0.105969,VALID,24.3761,VALID,103,VALID,0,
2010-05-24, 02:48:04,VALID,1008.22,VALID,0,VALID,102.429,VALID,0,VALID,24.3761,VALID,103,VALID,0,
2010-05-24, 02:49:04,VALID,1008.21,VALID,0,VALID,102.437,VALID,0.105969,VALID,24.3547,VALID,103,VALID,0,
2010-05-24, 02:50:04,VALID,1008.21,VALID,0,VALID,102.437,VALID,0.105969,VALID,24.3547,VALID,103,VALID,0,
2010-05-24, 02:51:04,VALID,1008.22,VALID,0,VALID,102.452,VALID,0.105969,VALID,24.3547,VALID,103,VALID,0,
2010-05-24, 02:52:04,VALID,1008.25,VALID,0,VALID,102.444,VALID,0,VALID,24.3352,VALID,103,VALID,0.317578,
2010-05-24, 02:53:04,VALID,1008.22,VALID,0,VALID,102.452,VALID,0.105969,VALID,24.3158,VALID,103,VALID,0.360938,
2010-05-24, 02:54:04,VALID,1008.23,VALID,0,VALID,102.452,VALID,0.105969,VALID,24.3371,VALID,103,VALID,0.342578,
2010-05-24, 02:55:04,VALID,1008.23,VALID,0,VALID,102.437,VALID,0.105969,VALID,24.3371,VALID,103,VALID,0.403516,
2010-05-24, 02:56:04,VALID,1008.23,VALID,0,VALID,102.452,VALID,0,VALID,24.3158,VALID,160,VALID,0.234766,
2010-05-24, 02:57:04,VALID,1008.21,VALID,0,VALID,102.437,VALID,0,VALID,24.3176,VALID,160,VALID,0,
2010-05-24, 02:58:04,VALID,1008.22,VALID,0,VALID,102.475,VALID,0,VALID,24.2963,VALID,160,VALID,0,
2010-05-24, 02:59:04,VALID,1008.23,VALID,0,VALID,102.452,VALID,0,VALID,24.2963,VALID,160,VALID,0,
2010-05-24, 03:00:04,VALID,1008.21,VALID,0,VALID,102.475,VALID,0.105969,VALID,24.2963,VALID,160,VALID,0,
2010-05-24, 03:01:04,VALID,1008.22,VALID,0,VALID,102.46,VALID,0.105969,VALID,24.3176,VALID,160,VALID,0,
2010-05-24, 03:02:04,VALID,1008.2,VALID,0,VALID,102.452,VALID,0.105969,VALID,24.3176,VALID,160,VALID,0,
2010-05-24, 03:03:04,VALID,1008.22,VALID,0,VALID,102.46,VALID,0,VALID,24.3176,VALID,160,VALID,0,
2010-05-24, 03:04:04,VALID,1008.19,VALID,0,VALID,102.444,VALID,0,VALID,24.3176,VALID,160,VALID,0,
2010-05-24, 03:05:04,VALID,1008.19,VALID,0,VALID,102.452,VALID,0.105969,VALID,24.2963,VALID,160,VALID,0,
2010-05-24, 03:06:04,VALID,1008.16,VALID,0,VALID,102.46,VALID,0.105969,VALID,24.2963,VALID,160,VALID,0,
2010-05-24, 03:07:04,VALID,1008.14,VALID,0,VALID,102.475,VALID,0.105969,VALID,24.3176,VALID,160,VALID,0,
2010-05-24, 03:08:04,VALID,1008.15,VALID,0,VALID,102.452,VALID,0.105969,VALID,24.3176,VALID,160,VALID,0,
2010-05-24, 03:09:04,VALID,1008.14,VALID,0,VALID,102.46,VALID,0.105969,VALID,24.2768,VALID,160,VALID,0,
2010-05-24, 03:10:04,VALID,1008.11,VALID,0,VALID,102.452,VALID,0.105969,VALID,24.2981,VALID,160,VALID,0,
2010-05-24, 03:11:04,VALID,1008.11,VALID,0,VALID,102.437,VALID,0.105969,VALID,24.2963,VALID,160,VALID,0,
2010-05-24, 03:12:04,VALID,1008.12,VALID,0,VALID,102.444,VALID,0,VALID,24.2768,VALID,160,VALID,0,
2010-05-24, 03:13:04,VALID,1008.1,VALID,0,VALID,102.452,VALID,0.105969,VALID,24.2768,VALID,160,VALID,0,
2010-05-24, 03:14:04,VALID,1008.1,VALID,0,VALID,102.467,VALID,0.105969,VALID,24.2768,VALID,160,VALID,0,
2010-05-24, 03:15:04,VALID,1008.09,VALID,0,VALID,102.444,VALID,0.105969,VALID,24.2768,VALID,160,VALID,0,
2010-05-24, 03:16:04,VALID,1008.08,VALID,0,VALID,102.437,VALID,0.105969,VALID,24.2981,VALID,160,VALID,0,
2010-05-24, 03:17:04,VALID,1008.06,VALID,0,VALID,102.437,VALID,0.105969,VALID,24.2768,VALID,159,VALID,0,
2010-05-24, 03:18:04,VALID,1008.05,VALID,0,VALID,102.406,VALID,0,VALID,24.2981,VALID,159,VALID,0,
2010-05-24, 03:19:04,VALID,1008.05,VALID,0,VALID,102.414,VALID,0,VALID,24.2981,VALID,92,VALID,0,
2010-05-24, 03:20:04,VALID,1008.03,VALID,0,VALID,102.421,VALID,0,VALID,24.2786,VALID,92,VALID,0,
2010-05-24, 03:21:04,VALID,1008.01,VALID,0,VALID,102.406,VALID,0.105969,VALID,24.2981,VALID,92,VALID,0,
2010-05-24, 03:22:04,VALID,1008.03,VALID,0,VALID,102.414,VALID,0.105969,VALID,24.2981,VALID,92,VALID,0,
2010-05-24, 03:23:04,VALID,1008.03,VALID,0,VALID,102.399,VALID,0.105969,VALID,24.2981,VALID,72,VALID,0,
2010-05-24, 03:24:04,VALID,1008.02,VALID,0,VALID,102.406,VALID,0.105969,VALID,24.2963,VALID,75,VALID,0,
2010-05-24, 03:25:04,VALID,1008.04,VALID,0,VALID,102.421,VALID,0,VALID,24.2981,VALID,82,VALID,0,
2010-05-24, 03:26:04,VALID,1008.04,VALID,0,VALID,102.406,VALID,0.105969,VALID,24.2981,VALID,87,VALID,0,
2010-05-24, 03:27:04,VALID,1008.04,VALID,0,VALID,102.421,VALID,0,VALID,24.3176,VALID,87,VALID,0,
2010-05-24, 03:28:04,VALID,1008.02,VALID,0,VALID,102.429,VALID,0,VALID,24.3176,VALID,87,VALID,0,
2010-05-24, 03:29:04,VALID,1008.03,VALID,0,VALID,102.383,VALID,0,VALID,24.3176,VALID,87,VALID,0,
2010-05-24, 03:30:04,VALID,1008.05,VALID,0,VALID,102.406,VALID,0.105969,VALID,24.2963,VALID,87,VALID,0,
2010-05-24, 03:31:04,VALID,1008.02,VALID,0,VALID,102.399,VALID,0,VALID,24.2963,VALID,87,VALID,0,
2010-05-24, 03:32:04,VALID,1008.03,VALID,0,VALID,102.399,VALID,0.105969,VALID,24.3176,VALID,119,VALID,0,
2010-05-24, 03:33:04,VALID,1008.05,VALID,0,VALID,102.406,VALID,0.105969,VALID,24.2963,VALID,108,VALID,0.646875,
2010-05-24, 03:34:04,VALID,1008.03,VALID,0,VALID,102.406,VALID,0.105969,VALID,24.2963,VALID,112,VALID,0.468359,
2010-05-24, 03:35:04,VALID,1008.05,VALID,0,VALID,102.406,VALID,0.105969,VALID,24.2963,VALID,128,VALID,0.654688,
2010-05-24, 03:36:04,VALID,1008.05,VALID,0,VALID,102.399,VALID,0.105969,VALID,24.2768,VALID,128,VALID,0.520312,
2010-05-24, 03:37:04,VALID,1008.07,VALID,0,VALID,102.414,VALID,0,VALID,24.3176,VALID,128,VALID,0.250781,
2010-05-24, 03:38:04,VALID,1008.04,VALID,0,VALID,102.414,VALID,0,VALID,24.2981,VALID,123,VALID,0.411719,
2010-05-24, 03:39:04,VALID,1008.06,VALID,0,VALID,102.421,VALID,0.105969,VALID,24.2768,VALID,125,VALID,0.485547,
2010-05-24, 03:40:04,VALID,1008.09,VALID,0,VALID,102.421,VALID,0,VALID,24.2981,VALID,125,VALID,0.572656,
2010-05-24, 03:41:04,VALID,1008.09,VALID,0,VALID,102.421,VALID,0,VALID,24.2768,VALID,126,VALID,0.410547,
2010-05-24, 03:42:04,VALID,1008.07,VALID,0,VALID,102.429,VALID,0.105969,VALID,24.2786,VALID,126,VALID,0.255078,
2010-05-24, 03:43:04,VALID,1008.09,VALID,0,VALID,102.421,VALID,0,VALID,24.2786,VALID,119,VALID,0.273828,
2010-05-24, 03:44:04,VALID,1008.1,VALID,0,VALID,102.437,VALID,0,VALID,24.2573,VALID,119,VALID,0.323438,